Weather in Kropotkin

Russia / Irkutsk Oblast     58°30′18″N   115°18′09″E
temp.,
°C
wind,
m/s
gust,
m/s
humid.,
%
clouds,
%
prec.,
mm/h
press.,
hPa
HPBL,
m
22 april, thu
thu2223:00−20w22985 0.0 10309
02:00−21w329926 0.0 103210
05:00−21wnw329972 0.0 103411
08:00−11wnw248532 0.0 1033204
11:00−8wnw457070 0.0 1033869
14:00−6nw446471 0.1 10341081
17:00−6w35615 0.0 1035758
20:00−14w328021 0.1 10409
23 april, fri
fri2323:00−17w32905 0.0 104310
02:00−17wsw339418 0.0 104312
05:00−15wsw439454 0.0 104222
08:00−7wsw10168395 0.1 10391041
11:00−4wsw142083100 0.1 10371580
14:00−3w15198996 0.4 10351509
17:00−3w131890100 0.3 10351347
20:00−4w11189080 0.6 1036645
24 april, sat
sat2423:00−4wnw9169175 0.2 1038610
02:00−6w7129090 0.3 1039189
05:00−10w339799 0.0 104117
08:00−5w3786100 0.1 1039680
11:00−3w7779100 0.1 10381025
14:00−2w677992 0.1 10361000
17:00−1w567658 0.0 1034800
20:00−9w118893 0.0 103510
25 april, sun
sun2523:00−11nw1194100 0.0 103410
02:00−11n1196100 0.0 103210
05:00−11wnw0097100 0.0 102810
08:00−5sse0089100 0.0 1024111
11:00−3ese1190100 0.0 1020208
14:00−2wsw0096100 0.0 1018231
17:00−1wnw1190100 0.0 1017222
20:00−3nnw1193100 0.0 101610
26 april, mon
mon2623:00−4nw2296100 0.0 101610
02:00−5wnw1196100 0.0 101511
05:00−4nw2297100 0.6 101422
08:00−3nw2291100 0.6 1013224
11:00−2nw2298100 0.6 1013329
14:00−1wnw1299100 1.0 1012321
17:00−1wnw1297100 0.7 1013249
20:00−2nw1199100 1.4 101512